www.pogodaiklimat.ru
ПОГОДА в Катакамасе

Архив погоды в Катакамасе (Гондурас)

Время
(UTC), дата
18 19.11
21 19.11
00 20.11
03 20.11
06 20.11
12 20.11
15 20.11
18 20.11
21 20.11
00 21.11
03 21.11
12 21.11
15 21.11
18 21.11
21 21.11
00 22.11
03 22.11
06 22.11
12 22.11
15 22.11
18 22.11
21 22.11
00 23.11
03 23.11
06 23.11
12 23.11
15 23.11
18 23.11
00 24.11
03 24.11
06 24.11
12 24.11
15 24.11
18 24.11
21 24.11
00 25.11
03 25.11
06 25.11
12 25.11
15 25.11
18 25.11
21 25.11
00 26.11
03 26.11
06 26.11
12 26.11
15 26.11
Ветер
(напр.,м/с)
Видим. Явления Облачность Т
(С)
Тd
(С)
f
(%)
Тe
(С)
Тes
(С)
Комфортность P
(гПа)
Po
(гПа)
Тmin
(С)
Tmax
(С)
R
(мм)
R24
(мм)
S
(см)
В 3 10 км мгла 9/5 600 м
[Cu med, cong As op]
+26.2 +21.8 79 +34 +37 очень
душно
1035.5 991.6 +19.8 +26.6
В 2 12 км 5/5 600 м
[Cb cap]
+28.6 +21.1 62 +36 +39 очень
душно
1035.0 991.4
штиль 0 10 км 8/4 600 м
[Cu hum Ac trans]
+24.6 +21.5 83 +31 +31 очень
душно
1035.6 991.4 +19.8 +28.6
штиль 0 10 км 8/4 600 м
[Cu hum Ac trans]
+22.9 +21.1 89 +30 +30 очень
душно
1036.0 991.6
СВ 2 10 км 8/4 800 м
[Cu hum Ac As]
+21.4 +20.5 100 +27 +27 душно 1036.4 991.7 +19.8 +28.6
штиль 0 1000 м туман, небо видно 5/5 600 м
[Cu hum]
+20.2 +19.9 100 +24 +24 комфорт 1062.0 992.0 +20.2 +28.6
штиль 0 12 км {туман} 6/5 600 м
[Cu hum Ac trans]
+26.0 +21.5 79 +33 +38 очень
душно
1058.8 991.7
С 2 12 км {туман} 8/5 600 м
[Cu med, cong As op]
+29.0 +21.5 66 +37 +41 очень
душно
1058.6 991.7 +20.2 +29.0
В 2 12 км 8/5 600 м
[Cu med, cong As op]
+29.2 +20.2 58 +35 +38 очень
душно
1035.4 991.9
штиль 0 10 км в посл. час дождь {гроза} 9/4 840 м
[Cb cap Ac As]
+22.0 +21.0 94 +30 +30 очень
душно
1036.4 991.9 +20.6 +28.9 6
штиль 0 10 км 10/5 600 м
[Sc As op]
+21.2 +19.2 88 +26 +26 душно 1062.0 992.0
штиль 0 10 км мгла 9/5 180 м
[Sc diur, vesp Ac As]
+20.9 +20.6 100 +26 +26 душно 1036.8 992.0 +20.6 +29.8 0.3 1.7
штиль 0 10 км мгла 9/4 800 м
[Cu hum Ac As]
+23.9 +23.2 94 +32 +35 очень
душно
1036.1 991.9
нст 1 10 км мгла 9/4 800 м
[Cu hum Ac As]
+28.0 +22.2 70 +36 +41 очень
душно
1035.2 991.6 +20.6 +28.0
В 2 10 км гроза без осадков {дождь} 9/5 840 м
[Cb cap Ac As]
+24.2 +22.5 94 +32 +34 очень
душно
1035.8 991.6 9
нст 1 10 км в посл. час дождь {гроза} 9/4 840 м
[Cb cap Ac As]
+22.5 +21.7 94 +31 +31 очень
душно
1036.4 991.9 +20.6 +28.9 6
штиль 0 10 км мгла 8/4 840 м
[Cu hum Ac As]
+21.7 +21.3 94 +28 +28 душно 1036.7 992.1
штиль 0 10 км мгла 9/4 800 м
[Sc diur, vesp Ac As]
+21.1 +21.0 100 +26 +26 душно 1036.9 992.2 +20.6 +28.9
штиль 0 10 км мгла 8/4 300 м
[Cu hum Ac trans]
+18.8 +17.0 88 +20 +20 1037.4 992.2 +18.8 +28.9 2 16.3
В 2 10 км мгла 4/4 600 м
[Cu hum]
+24.4 +21.0 83 +30 +34 очень
душно
1036.4 992.2
штиль 0 10 км мгла 8/4 600 м
[Cu med, cong Ac trans]
+27.2 +21.4 70 +35 +42 очень
душно
1035.5 991.7 +18.8 +27.2
штиль 0 10 км мгла 5/5 600 м
[Cb cap]
+29.6 +21.0 59 +37 +41 очень
душно
1034.9 991.5
В 3 10 км мгла 6/6 600 м
[Cb cap As op]
+24.2 +21.7 86 +31 +31 очень
душно
1035.7 991.5 +18.8 +30.0
штиль 0 10 км 8/4 600 м
[Cu hum Ac trans]
+23.0 +20.7 87 +30 +30 очень
душно
1036.0 991.6
штиль 0 10 км 4/4 840 м
[Cu hum]
+21.4 +20.5 100 +27 +27 душно 1036.4 991.7 +18.8 +30.0
штиль 0 12 км {снег} 8/5 600 м
[Cu hum As op]
+21.0 +20.1 95 +26 +26 душно 1062.1 992.0 +21.0 +30.0 1.7
штиль 0 10 км 5/5 840 м +25.0 +21.0 78
Ю 1 12 км 8/6 600 м
[Cu med, cong]
+29.4 +21.4 62 +36 +39 очень
душно
1058.7 991.7 +21.0 +29.4
штиль 0 12 км 5/5 600 м
[Cu med, cong]
+24.6 +22.1 86 +32 +32 очень
душно
1061.1 991.9
штиль 0 12 км 4/4 600 м
[Cu hum]
+23.0 +21.6 92 +31 +31 очень
душно
1062.0 992.0
штиль 0 10 км н/о +21.6 +21.5 100 +28 +28 очень
душно
1066.9 992.5 +21.0 +29.4
штиль 0 10 км мгла 9/1 840 м
[Sc diur, vesp Ac As]
+20.7 +20.4 94 +25 +25 комфорт 1061.5 991.9 +20.7 +29.4
штиль 0 10 км мгла 9/4 800 м
[Sc diur, vesp Ac As]
+24.2 +22.0 89 +31 +34 очень
душно
1060.9 991.9
ЮВ 2 10 км мгла 6/5 840 м
[Cu med, cong Ac lent]
+28.8 +23.2 70 +39 +46 очень
душно
1047.6 991.7 +20.7 +28.8
В 49 10 км в посл. час дождь {мгла} 8/6 840 м
[Cb cap Ac lent Ci sp]
+28.0 +23.1 74 +37 +40 очень
душно
1034.9 991.3 0.1
нст 32 10 км зарница {дождь, мгла} 8/6 840 м
[Cb cap Ac lent Ci sp]
+23.9 +21.8 88 +31 +31 очень
душно
1036.0 991.7 +20.7 +31.8 4
штиль 0 10 км зарница {мгла} 5/5 840 м
[Cb cap Ac lent Ci sp]
+23.0 +21.7 92 +31 +31 очень
душно
1059.9 991.8
штиль 0 10 км мгла 3/3 840 м
[Sc diur, vesp Ci sp]
+20.8 +20.4 94 +25 +25 комфорт 1060.9 991.9 +20.7 +31.8
штиль 0 10 км мгла 8/4 600 м
[Cu hum Ac trans]
+18.0 +17.4 94 +18 +18 1065.8 992.3 +17.6 +31.8 4.4
штиль 0 10 км мгла 8/5 600 м
[Cu hum Ac trans]
+23.8 +20.7 83 +30 +33 очень
душно
1062.1 992.0
СВ 2 10 км мгла 8/4 600 м
[Cu med, cong Ac As]
+27.8 +21.1 66 +35 +40 очень
душно
1044.7 991.5 +17.6 +27.8
ЮВ 3 10 км мгла 9/4 600 м
[Cu med, cong Ac As]
+28.6 +21.4 62 +36 +38 очень
душно
1053.8 991.3
штиль 0 10 км мгла 8/5 600 м
[Cb cap Ac trans]
+24.8 +22.6 88 +33 +33 очень
душно
1053.9 991.2 +17.6 +30.5
штиль 0 10 км 8/4 600 м
[Cu hum Ac trans]
+23.0 +21.9 94 +31 +31 очень
душно
1056.8 991.5 +17.6 +30.5
СВ 2 10 км 5/5 840 м +21.0 +21.0 100 +27 +27 душно
штиль 0 10 км 9/5 600 м
[Sc As op]
+21.8 +21.0 94 +28 +28 душно 1062.1 992.0 +21.8 +30.5
штиль 0 12 км 10/5 600 м
[Sc As op]
+24.0 +22.1 89 +31 +32 очень
душно
1062.0 1015.9
Местоположение метеостанции Катакамас (Гондурас): широта 14.88 долгота -85.77 высота над уровнем моря 386 м.
В архиве по умолчанию представлена погода в Катакамасе за последнюю неделю. Архивные данные за месяц целиком и за предыдущие месяцы, начиная с января 2011 года, Вы можете получить, выбрав интересующий диапазон дат из раскрывающегося списка и нажав кнопку "Найти!".
*Определитесь, кто Вы:
Внимание! Время в таблицах - всемирное. Для получения местного времени необходимо прибавить поправку, которая равна -6 ч.
Смотрите также архив погоды в соседних городах и на ближайших метеорологических станциях:
Партнеры нашего сайта:      
Пояснения к столбцам:
  • Ветер - указаны скорость ветра в м/с - средняя за 10 мин, порывы в срок и между сроками (в фигурных скобках) и направление, откуда дует ветер: С - северный,
  • СВ - северо-восточный, В - восточный, ЮВ - юго-восточный, Ю - южный, ЮЗ - юго-западный, З - западный, СЗ - северо-западный.
  • Видимость - горизонтальная дальность видимости в метрах или километрах. При видимости от 1 до 10 км при отсутствии осадков обычно наблюдается дымка, при ухудшении видимости до 1 км и менее - туман. В сухую погоду видимость может ухудшаться дымом, пылью или мглою.
  • Явления - указаны атмосферные явления, наблюдавшиеся в срок или в последний час перед сроком; фигурными скобками обозначены явления, наблюдавшиеся между сроками (за 1-3 часа до срока); квадратными скобками обозначены град или гололедные отложения с указанием их диаметра в мм.
  • Облачность - указаны через наклонную черту общая и нижняя облачность в баллах и высота нижней границы облаков в метрах; квадратными скобками обозначены формы облаков: Ci - перистые, Cs - перисто-слоистые, Cc - перисто-кучевые, Ac - высококучевые, As - высокослоистые, Sc - слоисто-кучевые, Ns - слоисто-дождевые, Cu - кучевые, Cb - кучево-дождевые. Подробнее классификацию облаков см. в Атласе облаков (PDF).
  • T - Температура воздуха - температура, измеренная на высоте 2 м над землей.
  • Td - Температура точки росы - температура, при понижении до которой содержащийся в воздухе водяной пар достигнет насыщения.
  • f - Относительная влажность воздуха - влажноcть воздуха, измеренная на высоте 2 м над землей.
  • Te - Эффективная температура - температура, которую ощущает одетый по сезону человек в тени. Характеристика душности погоды. При расчете учитывается влияние влажности воздуха и скорости ветра на теплоощущения человека.
  • Tes - Эффективная температура на солнце - температура, которую ощущает человек, с поправкой на солнечный нагрев. Характеристика знойности погоды. Зависит от высоты солнца над горизонтом, облачности и скорости ветра. Ночью, в пасмурную погоду, а также при ветре 12 м/с и более поправка равна нулю.
  • P - Атмосферное давление - приведенное к уровню моря атмосферное давление.
  • Po - Атмосферное давление - измеренное на уровне метеостанции атмосферное давление.
  • Tmin - Минимальная температура - минимум температуры воздуха на высоте 2 м над землей.
  • Tmax - Максимальная температура - максимум температуры воздуха на высоте 2 м над землей.
  • R - Количество осадков - Количество выпавших осадков за период времени, мм. При наведении курсора мыши на число - период времени, за который выпало указанное количество осадков.
  • R24 - Количество осадков - Количество выпавших осадков за 24 часа, мм.
  • S - Снежный покров - Высота снежного покрова, см. При наведении курсора мыши на число - состояние снежного покрова и степень покрытия местности в баллах.